Regional Weather Roundup
Issued by NWS

Home | Current Version | Previous Version | Text Only | Print | Product List | Glossary On
Versions: 1 2 3 4 5 6 7 8 9 10 11 12 13 14 15 16 17 18 19 20 21 22 23 24 25 26 27
000
ASUS44 KBMX 280010
RWRAL

ALABAMA REGIONAL WEATHER ROUNDUP
NATIONAL WEATHER SERVICE BIRMINGHAM AL
700 PM CDT TUE SEP 27 2016

NOTE: "FAIR" INDICATES FEW OR NO CLOUDS BELOW 12,000 FEET
WITH NO SIGNIFICANT WEATHER AND/OR OBSTRUCTIONS TO VISIBILITY.

THE REMARK "TC" DENOTES TEMPERATURE IN DEGREES CELSIUS.

ALZ001>011-014-016>018-020-280100-
NORTH ALABAMA

CITY           SKY/WX    TMP DP  RH WIND       PRES   REMARKS
MUSCLE SHOALS  CLEAR     74  44  34 N6        29.93S
6HR MIN TEMP:  74; 6HR MAX TEMP:  85;

HUNTSVILLE     CLEAR     78  44  29 N7        29.91R
6HR MIN TEMP:  78; 6HR MAX TEMP:  88;

DECATUR        CLEAR     73  47  39 N8        29.92R
6HR MIN TEMP:  73; 6HR MAX TEMP:  85;

HALEYVILLE     FAIR      71  50  47 N3        29.95R
6HR MIN TEMP:  71; 6HR MAX TEMP:  85;

GADSDEN        CLEAR     80  66  62 W5        29.89R
6HR MIN TEMP:  80; 6HR MAX TEMP:  88;

$$

ALZ012-013-022-023-030>036-040>044-280100-
WEST CENTRAL ALABAMA

CITY           SKY/WX    TMP DP  RH WIND       PRES   REMARKS
TUSCALOOSA     CLEAR     80  64  58 W5        29.90R
6HR MIN TEMP:  80; 6HR MAX TEMP:  89;

$$

ALZ015-024>027-033>036-040>044-280100-
CENTRAL ALABAMA

CITY           SKY/WX    TMP DP  RH WIND       PRES   REMARKS
BIRMINGHAM     PTCLDY    82  65  56 W7        29.91R
6HR MIN TEMP:  82; 6HR MAX TEMP:  89;

MONTGOMERY     PTCLDY    81  68  64 NW6       29.89R
6HR MIN TEMP:  81; 6HR MAX TEMP:  92;

SHELBY CO ARPT PTCLDY    81  66  60 VRB3      29.89R
6HR MIN TEMP:  81; 6HR MAX TEMP:  90;

MAXWELL AFB    PTCLDY    79  70  74 W3        29.88R
6HR MIN TEMP:  79; 6HR MAX TEMP:  92;

GREENVILLE     NOT AVBL
$$

ALZ019-021-028-029-037-038-045>048-280100-
EAST CENTRAL ALABAMA

CITY           SKY/WX    TMP DP  RH WIND       PRES   REMARKS
ANNISTON       MOCLDY    84  63  49 NW5       29.88R
6HR MIN TEMP:  84; 6HR MAX TEMP:  91;

ALEXANDER CITY CLEAR     80  76  89 CALM      29.90S
6HR MIN TEMP:  80; 6HR MAX TEMP:  91; 6HR PCP:  0.02;

AUBURN         PTCLDY    82  66  58 SW5       29.92R
6HR MIN TEMP:  82; 6HR MAX TEMP:  90;

$$

ALZ051>064-280100-
SOUTHWEST ALABAMA

CITY           SKY/WX    TMP DP  RH WIND       PRES   REMARKS
MOBILE         PTCLDY    78  72  81 CALM      29.91S
6HR MIN TEMP:  78; 6HR MAX TEMP:  89;

BROOKLEY FIELD PTCLDY    76  74  93 CALM      29.92R
6HR MIN TEMP:  76; 6HR MAX TEMP:  87; 6HR PCP:  0.09;

EVERGREEN      CLOUDY    77  70  79 S7        29.92R
6HR MIN TEMP:  77; 6HR MAX TEMP:  90;

$$

ALZ049-050-065>069-280100-
SOUTHEAST ALABAMA

CITY           SKY/WX    TMP DP  RH WIND       PRES   REMARKS
DOTHAN         PTCLDY    79  72  79 CALM      29.93R
6HR MIN TEMP:  79; 6HR MAX TEMP:  92;

OZARK          CLEAR     80  70  71 VRB5      29.89R
6HR MIN TEMP:  80; 6HR MAX TEMP:  89;

TROY           PTCLDY    77  71  82 CALM      29.90R
6HR MIN TEMP:  76; 6HR MAX TEMP:  89;

EUFAULA        NOT AVBL
$$




USA.gov is the U.S. government's official web portal to all federal, state and local government web resources and services.